Orbital elements:
    C/2001 OG108 (LONEOS)
Epoch 2002 Mar. 27.0 TT = JDT 2452360.5
T 2002 Mar. 15.20618 TT                                 MPC
q   0.9940480            (2000.0)            P               Q
n   0.02030608     Peri.  116.41991     -0.46521298     -0.86659330
a  13.3061362      Node    10.55525     -0.28900285     -0.04408086
e   0.9252940      Incl.   80.24516     +0.83669244     -0.49706430
P  48.54
Residuals in seconds of arc
010728 699  0.5-  1.0+    011004 151  0.4-  0.6-    011026 185  0.1+  0.0
010728 699  0.2-  0.1-    011004 151  0.6-  0.0     011026 185  0.0   0.1+
010728 699  0.5-  0.2+    011005 118  0.4+  0.0     011026 185  0.1+  0.0
010728 699  0.2+  0.1+    011005 118  0.4+  0.1+    011026 185  0.1-  0.2+
010729 557  0.2-  0.1-    011006 151  0.1+  0.2+    011026 185  0.1+  0.3+
010729 557  0.0   0.5-    011006 151  0.2-  0.3-    011026 151  0.3-  0.2+
010729 557  0.3+  0.0     011006 151  0.4-  0.2-    011026 151  0.3+  0.1-
010729 046  0.3-  0.5-    011006 151  0.4-  0.2-    011026 151  0.1-  0.0
010729 046  0.0   0.2-    011006 151  0.1-  0.3-    011026 151  0.1+  0.2+
010729 046  0.1+  0.4-    011006 151  0.3-  0.3-    011026 151  0.1+  0.3+
010729 046  0.6+  0.3-    011009 921  0.1-  1.0+    011026 151  0.0   0.2-
010729 046  0.2+  0.4+    011009 921  1.4-  0.1+    011029 739  1.6-  0.1-
010729 620 (4.1+  1.9+)   011009 921  1.0+  1.7-    011029 739  0.8-  1.1+
010729 620 (2.9+  1.1+)   011009 921  1.8-  0.3+    011029 739  1.1-  0.1-
010730 046  0.1+  0.5+    011009 921  0.1-  1.6-    011030 185  0.0   0.1-
010730 046  0.0   0.0     011009 921  0.5+  1.6-    011030 185  0.1-  0.0
010730 046  0.0   0.1+    011009 629  0.2+  0.1+    011030 185  0.2-  0.1-
010731 046  0.0   0.1+    011009 629  0.5+  0.0     011030 185  0.6-  0.1+
010731 046  0.4+  0.2-    011009 629  0.2+  1.0+    011101 151  0.2-  0.7+
010731 046  0.1+  0.4+    011010 557  0.8+  0.1-    011101 151  0.1+  1.0+
010731 094  0.2-  0.4-    011010 557  0.5+  0.1-    011101 151  0.0   0.5+
010731 094  0.4-  0.6-    011010 557  0.6+  0.2-    011101 151  0.3+  0.3+
010731 094  0.3-  0.5-    011010 557  0.2+  0.2-    011101 151  0.0   0.3+
010731 649  0.4-  0.1-    011010 557  0.3+  0.1+    011101 151  0.2+  0.4+
010731 649  0.3+  0.1-    011010 557  0.3+  0.2-    011102 185  0.4-  0.0
010731 649  0.1-  0.5+    011010 557  0.1+  0.1-    011102 185  0.2-  0.2+
010731 658  0.2+  0.6-    011010 557  0.1+  0.1-    011102 185  0.1-  0.0
010731 658  0.3-  0.3+    011011 557  0.2+  0.1+    011102 185  0.2-  0.1+
010731 658  0.0   0.1-    011011 587  0.7+  0.3-    011102 185  0.4-  0.1-
010731 413  0.2+  0.1+    011011 587  0.9+  0.1-    011102 185  0.3-  0.1+
010731 413  0.1+  0.1+    011011 127  0.2-  0.4-    011102 185  0.1-  0.1+
010731 413  0.0   0.0     011011 127  0.1+  0.2-    011102 185  0.2-  0.1+
010801 046  0.2-  0.2+    011012 557  0.4+  0.1+    011102 185  0.3-  0.1+
010801 046  0.0   0.1-    011012 557  0.4+  0.2+    011102 185  0.5-  0.1+
010801 046  0.9-  0.7-    011012 557  0.5+  0.2+    011102 185  0.7-  0.1+
010801 046  0.1+  0.0     011012 557  0.4+  0.0     011103 726  0.1-  1.0+
010801 649  0.5+  0.4-    011012 355  0.9+  0.3-    011103 726  0.4+  0.2-
010801 649  0.2+  0.1-    011012 355  0.8+  0.5+    011103 726  0.8+  0.2+
010801 649  0.3-  0.1+    011012 355  0.7+  0.4+    011103 726  0.3+  0.7+
010804 608  0.4-  1.0-    011012 355  0.5+  0.6+    011103 726  0.2+  0.6+
010804 608  0.1-  1.7-    011012 360  0.5+  0.2+    011103 726  0.4-  0.7+
010804 608  0.1+  0.9-    011012 360  0.6+  0.3+    011103 952  1.3-  0.3+
010805 859  0.0   0.3-    011012 360  0.5+  0.2+    011103 952  1.2-  1.0-
010805 859  0.3-  0.8+    011012 300  1.3+  0.7+    011103 151  0.0   0.0
010805 859  0.2-  1.6+    011012 300  0.4+  0.1+    011103 151  0.0   0.1+
010808 413  0.2+  0.4-    011012 300  0.6+  0.1+    011103 151  0.1-  0.1+
010808 413  0.0   0.2+    011012 300  0.5+  0.3+    011103 151  0.1-  0.1-
010808 413  0.0   0.4-    011012 300  0.2+  0.3+    011103 151  0.1+  0.1+
010809 413  0.0   0.5-    011012 300  0.4+  0.5-    011103 151  0.1-  0.0
010809 413  0.2+  0.3-    011012 300  0.0   0.3+    011104 739  0.1-  0.1+
010809 413  0.2+  0.0     011012 300  0.4+  0.2+    011104 739  1.0-  0.1-
010811 658  0.3+  0.0     011012 185  1.0-  0.0     011104 739  0.7+  0.0
010811 658  0.4+  0.0     011012 185  0.3-  0.0     011104 726  0.3+  0.4+
010811 658  0.3+  0.1-    011013 642  0.9+  0.5-    011104 726  0.3+  0.4+
010812 046  1.1+  0.2-    011013 642  0.2-  0.0     011104 726  0.4-  0.8+
010812 046  0.5+  0.6-    011013 642  0.1-  0.2+    011104 726  0.2+  1.2+
010812 046  0.2-  0.6+    011013 349  0.7+  0.5-    011104 349  0.5-  1.0+
010812 046  0.7+  0.1-    011013 349  0.6+  0.5-    011104 349  0.1-  0.7+
010812 046  0.4-  0.2+    011013 557  0.2+  0.1+    011104 349  0.6-  0.3+
010812 046  0.0   0.5+    011013 557  0.1+  0.1+    011104 347  0.3-  0.1-
010812 046  0.1-  0.3+    011013 157  0.2+  0.1-    011104 347  0.6-  0.8+
010812 046  0.9-  0.1-    011013 157  0.2-  0.2-    011104 347  0.2+  0.8-
010812 046  0.1+  0.2-    011013 157  0.3+  0.1-    011104 118  0.2+  0.2-
010812 046  0.7-  0.1-    011013 557  0.2+  0.1+    011104 118  0.4-  0.1-
010812 046  0.0   0.3+    011013 557  0.3+  0.1+    011104 118  0.1-  0.1-
010812 046  0.2-  0.6+    011014 557  0.1+  0.1+    011108 322  0.5-  0.4-
010812 046  1.2+  0.6+    011014 557  0.2+  0.2+    011108 322  0.3-  0.1+
010812 557  0.6+  0.4-    011014 557  0.2+  0.2+    011108 322  0.4-  0.1-
010813 557  0.1+  0.0     011014 557  0.4+  0.1+    011110 557  0.1+  0.2+
010813 658  0.0   0.1+    011014 185  0.2-  0.0     011110 557  0.2+  0.0
010813 658  0.4-  0.2-    011014 185  0.1-  0.4+    011110 557  0.5+  0.2+
010813 658  0.0   0.2-    011014 185  0.1+  0.0     011110 557  0.1+  0.0
010813 568  0.0   0.2+    011014 185  0.4-  0.2+    011110 557  0.0   0.3+
010813 568  0.0   0.0     011014 185  0.4-  0.2+    011110 557  0.0   0.1+
010813 568  0.0   0.0     011014 198  0.6+  0.1+    011111 557  0.7+  0.4+
010813 608  0.5-  0.7+    011014 557  0.3+  0.3+    011111 557  0.8+  0.3+
010813 608  0.5-  0.5+    011014 198  0.1-  0.3+    011111 557  0.5+  0.2+
010813 608  0.6-  1.2+    011014 610  0.1+  0.4+    011111 557  0.4+  0.1+
010813 422  0.1+  0.1-    011014 610  0.2+  0.5+    011111 557  0.2+  0.2+
010813 422  0.4+  0.4-    011014 610  0.3+  0.5+    011111 557  0.3+  0.0
010813 422  0.0   0.5+    011014 610  0.3+  0.5+    011112 704  0.4+  0.1+
010813 215  0.3+  0.5+    011014 610  0.4+  0.5+    011112 704  0.4-  0.3+
010813 215  1.1-  0.2-    011014 557  0.3+  0.1+    011112 704  0.5+  0.2+
010813 215  0.4+  1.1+    011014 127  0.3-  0.4+    011112 704  0.7+  0.5+
010814 402  0.2+  0.3-    011014 127  0.4-  0.0     011112 704  0.7+  0.5+
010814 402  0.2+  0.3-    011014 127  0.2+  0.1-    011112 921  0.3-  0.2-
010814 402  0.4+  0.2-    011015 557  0.3+  0.2+    011112 921  0.2-  0.5-
010817 704  0.6-  0.6+    011015 557  0.3+  0.2+    011112 921  1.8-  0.6-
010817 704  0.7-  0.8+    011015 557  0.0   0.0     011113 557  0.2+  0.1+
010817 704  1.2-  1.1+    011015 557  0.0   0.1-    011113 557  0.3-  0.5+
010821 611  1.1-  0.6-    011015 557  0.4-  0.1+    011113 557  0.2+  0.4+
010821 611  0.4+  0.5+    011015 610  0.0   0.5-    011113 557  0.3+  0.2+
010822 151  0.3-  1.1+    011015 610  0.0   0.3-    011113 557  0.1-  0.3+
010822 151  0.0   0.4-    011015 610  0.0   0.3-    011113 557  0.1-  0.3+
010822 151  0.8-  0.1+    011015 610  0.0   0.2-    011113 557  0.0   0.5+
010822 151  0.9+  0.8+    011015 610  0.0   0.2-    011114 557  0.3-  0.2+
010823 402  0.1+  0.1-    011015 610  0.0   0.1-    011114 557  0.1-  0.2+
010823 402  0.2+  0.1-    011015 557  0.3+  0.1-    011114 557  0.3-  0.2+
010823 402  0.2+  0.1-    011015 629  0.2-  0.2+    011114 557  0.5-  0.2+
010824 704  0.6-  1.2-    011015 629  0.0   0.1+    011115 557  0.2-  0.1-
010824 704  0.5-  1.4-    011015 629  0.6-  0.2-    011115 557  0.1+  0.1+
010824 704  0.3-  1.0-    011015 629  0.0   0.1+    011115 557  0.1-  0.0
010825 704  1.3+  0.2-    011015 557  0.3-  0.1-    011115 557  0.0   0.0
010825 704  0.5+  0.3-    011016 557  0.2-  0.2-    011116 670  0.4-  0.3-
010825 704  1.2+  0.6-    011016 627  0.1+  0.9-    011116 670  0.0   0.0
010825 704  0.8+  0.2-    011016 627  0.4+  0.4-    011116 402  0.3-  0.4-
010825 704  1.1+  0.3-    011016 627  0.6-  0.1-    011116 402  0.4-  0.4-
010825 151  0.1-  0.4+    011017 627  0.1+  0.3-    011116 402  0.3-  0.4-
010825 151  0.8-  0.2-    011017 627  0.3-  0.2-    011116 610  0.1+  0.2-
010825 151  0.2+  0.4+    011017 726  0.1+  0.9-    011116 610  0.1+  0.2-
010825 151  0.8+  0.1-    011017 726  0.2+  0.3+    011116 610  0.1+  0.3-
010827 360  0.1-  0.6-    011017 726  0.4-  1.2-    011116 610  0.1+  0.3-
010827 360  0.2-  0.6-    011017 726  0.2+  0.1-    011116 610  0.1-  0.3-
010827 360  0.1-  0.6-    011017 726  0.6+  1.7-    011116 557  0.0   0.1-
010828 151  1.0-  1.1+    011017 726  0.0   1.6-    011116 557  0.2-  0.1-
010828 151  0.1-  0.5+    011017 642  0.2-  0.1+    011116 557  0.2-  0.2-
010828 151  0.2+  0.5+    011017 642  0.2-  0.1+    011117 185  0.2-  0.0
010828 151  0.4-  0.3+    011017 642  0.1+  0.2+    011117 185  0.3+  0.2+
010828 151  1.1+  0.4+    011017 642  0.2-  0.1+    011117 118  0.3+  0.0
010828 151  0.7-  0.8-    011017 670  0.2-  0.2+    011117 185  0.0   0.0
010830 658  0.3+  0.1-    011017 670  0.3-  0.1+    011117 185  0.0   0.4+
010830 658  0.4+  0.1-    011017 608  0.3-  0.8-    011117 118  0.0   0.1+
010830 658  0.5+  0.1+    011017 608  0.1-  0.9-    011117 185  0.6-  0.2-
010831 644  0.2-  0.5+    011017 608  0.2-  0.9-    011119 939  1.0+  0.7-
010831 644  0.2-  0.4+    011017 322  0.7-  0.1-    011119 939  0.0   0.2-
010831 644  0.1-  0.6+    011017 322  0.3-  0.5-    011119 939  0.7-  0.1+
010831 402  0.1+  0.2+    011017 322  0.0   0.4-    011120 557  0.1-  0.0
010831 402  0.2+  0.2+    011018 704  0.1-  0.0     011120 557  0.1+  0.0
010831 402  0.1-  0.3+    011018 704  0.2-  0.2+    011120 557  0.2+  0.2+
010910 704  0.1-  0.2-    011018 704  0.1-  0.1+    011120 557  0.0   0.1-
010910 704  0.3-  0.3-    011018 704  0.3+  0.1+    011121 402  0.3+  0.1+
010910 704  0.1-  0.1-    011018 704  0.1-  0.1+    011121 402  0.1+  0.1+
010910 704  0.2-  0.1+    011019 726  1.0+  1.1-    011121 402  0.0   0.1-
010910 704  0.0   0.1+    011019 726  0.4-  0.7-    011121 867  0.0   0.2+
010912 670  0.5+  0.2-    011019 726  0.7+  0.5-    011121 867  0.1+  0.1+
010912 670  0.2+  0.2+    011019 557  0.0   0.2-    011121 867  0.0   0.1+
010912 670  0.5-  0.6-    011019 151  0.2-  0.0     011130 118  0.3-  0.1-
010917 704  0.0   0.3+    011019 151  0.3-  0.3-    011130 118  0.2-  0.1-
010917 704  0.0   0.0     011019 151  0.4-  0.2-    011130 118  0.3-  0.4-
010917 704  0.1+  0.1+    011019 151  0.0   0.0     011130 939  0.5-  0.5+
010917 704  0.1+  0.1-    011019 151  0.1-  0.1-    011130 939  0.2-  0.1+
010917 704  0.1-  0.0     011019 151  0.4-  0.2-    011130 939  0.5+  0.5-
010917 402  0.1+  0.1-    011019 557  0.2-  0.2-    011210 704  0.7+  0.2-
010917 402  0.2+  0.1-    011019 557  0.2-  0.1-    011210 704  0.5+  0.2-
010917 402  0.2+  0.1-    011019 157  0.1-  0.1-    011210 704  1.0+  0.1+
010918 113 (2.2-  3.7-)   011019 157  0.3-  0.3-    011210 704  0.5+  0.3+
010918 113  0.9-  0.2-    011019 157  0.3-  0.0     011210 704  1.2+  0.6+
010918 113  0.6-  0.0     011019 557  0.2-  0.1-    011210 198  0.3+  0.2+
010919 699  0.4-  0.2+    011020 557  0.2-  0.3-    011210 198  0.2+  0.1+
010919 699  0.4-  0.1+    011020 726  0.9-  0.1-    011210 198  0.4+  0.0
010919 699  0.6-  0.1+    011020 726  0.2+  1.0-    011214 118  0.4+  0.1+
010919 699  0.6-  0.1+    011020 726  0.4+  0.3+    011214 118  0.5+  0.3+
010922 867  0.1-  0.1+    011020 642  0.5+  1.3-    011215 921 (0.3+  2.4+)
010922 867  0.1+  0.0     011020 642  0.2+  0.6+    011215 921  0.1-  0.0
010922 867  0.0   0.0     011020 642  1.3-  0.1+    011215 921 (1.2+  2.2-)
010923 642  0.9+  0.3+    011020 642 (2.6-  0.5-)   011215 921 (1.2+  2.5-)
010923 642  0.0   0.3+    011021 739 (1.2-  2.8+)   020104 104  0.3+  0.1+
010923 642  0.1-  0.3+    011021 739  1.2+  1.0+    020104 104  0.0   0.1-
010923 642  0.0   0.2+    011021 739  0.6+  0.3+    020104 104  0.1+  0.1+
010923 642  0.0   0.6-    011022 610  0.1-  0.4+    020105 215  0.7+  0.1+
010923 402  0.3-  0.2-    011022 610  0.2-  0.5+    020105 215  0.2+  0.4-
010923 402  0.3-  0.3-    011022 185  0.3-  0.1-    020105 215  0.1-  0.0
010923 402  0.4-  0.3-    011022 610  0.1-  0.5+    020105 046  0.3+  0.1+
010924 726  0.7+  1.6-    011022 185  0.2-  0.0     020105 046  0.3+  0.0
010924 726  0.1+  1.1-    011022 610  0.0   0.5+    020105 046  0.3+  0.2+
010925 704  0.5-  0.1+    011022 610  0.0   0.6+    020105 046  0.4+  0.0
010925 704  0.7-  0.2+    011022 185  0.2-  0.0     020105 113  0.3+  0.2+
010925 704  0.3-  0.3+    011022 185  0.5-  0.0     020105 113  1.5+  0.0
010925 704  0.5-  0.3+    011022 610  0.1+  0.5+    020111 360  0.4-  0.3-
010925 071  1.7+  0.4-    011023 699  0.0   0.0     020111 360  0.1-  0.4-
010925 071 (2.1+  0.6-)   011023 699  0.2+  0.1+    020111 360  0.3-  0.5-
010925 071  1.9+  0.4-    011023 699  0.0   0.1+    020113 113  0.0   0.0
010926 670  0.1-  0.3+    011023 670  0.2+  0.3-    020113 113  0.1-  0.3-
010926 670  0.1+  0.2-    011023 699  0.1-  0.3+    020113 113  0.2+  0.2-
010926 151  0.7-  0.2+    011023 402  0.2+  0.2-    020113 113  0.1+  0.1+
010926 151  0.1+  0.3-    011023 402  0.2+  0.3-    020113 113  0.2+  0.3-
010926 151  0.3+  0.1+    011023 402  0.1+  0.3-    020122 379  0.1-  0.3-
010926 151  0.2-  0.0     011024 300  0.5+  0.0     020122 379  0.7+  0.1+
010929 644  0.0   0.1-    011024 300  0.6-  1.0-    020122 379  0.3+  0.1-
010929 644  0.2+  0.0     011024 300  0.4-  0.2-    020122 379  0.3-  0.6-
010929 644  0.1-  0.0     011024 300  0.0   0.2-    020124 379  1.3+  0.1-
010930 185  0.1-  0.1+    011024 300  0.1+  0.0     020124 379  0.1+  0.2-
010930 185  0.6-  0.5+    011025 402  0.1+  0.1-    020124 379  1.3-  0.1-
010930 185  0.2-  0.7+    011025 402  0.0   0.0     020201 360  0.7-  0.3-
011001 642  1.0-  0.1+    011025 402  0.1-  0.0     020201 360  0.8-  0.2-
011001 642 (2.3-  0.5+)   011025 151  0.3-  0.1+    020201 360  0.7-  0.4-
011001 642  2.0-  1.5+    011025 151  0.3+  0.1-    020201 867  0.4-  0.0
011001 642  0.5-  0.3-    011025 151  0.2-  0.1-    020201 867  0.5-  0.2-
011001 642  0.0   0.5+    011025 151  0.1-  0.2+    020201 867  0.4-  0.0
011004 151  0.1-  0.4+    011025 151  0.3+  0.1+    020201 867  0.5-  0.1-
011004 151  0.0   0.0     011025 151  0.3+  0.2-

